�������l�o���
Date,Time,MP-1(��Sv/h),MP-2(��Sv/h),MP-3(��Sv/h),MP-4(��Sv/h),MP-5(��Sv/h),MP-6(��Sv/h),MP-7(��Sv/h),MP-8(��Sv/h),����,����(m/s),���J
2020/11/30,00:00,0.673,0.973,0.614,1.212,0.860,0.382,0.676,0.637,�쐼,2.3,��
2020/11/30,00:10,0.674,0.974,0.614,1.211,0.862,0.383,0.678,0.638,���쐼,2.3,��
2020/11/30,00:20,0.674,0.973,0.615,1.212,0.861,0.383,0.677,0.638,�쐼,3.1,��
2020/11/30,00:30,0.673,0.972,0.615,1.212,0.862,0.384,0.677,0.639,��쐼,2.9,��
2020/11/30,00:40,0.674,0.972,0.615,1.211,0.860,0.384,0.676,0.636,�쐼,1.7,��
2020/11/30,00:50,0.673,0.975,0.616,1.210,0.862,0.384,0.677,0.637,�쐼,1.2,��
2020/11/30,01:00,0.675,0.976,0.614,1.212,0.864,0.383,0.676,0.638,�쐼,1.7,��
2020/11/30,01:10,0.674,0.971,0.614,1.211,0.861,0.383,0.677,0.638,���쐼,1.5,��
2020/11/30,01:20,0.673,0.975,0.614,1.213,0.862,0.385,0.676,0.637,��,1.2,��
2020/11/30,01:30,0.674,0.974,0.614,1.213,0.861,0.383,0.677,0.637,���k��,0.9,��
2020/11/30,01:40,0.675,0.973,0.614,1.214,0.862,0.383,0.675,0.635,���k��,0.8,��
2020/11/30,01:50,0.673,0.973,0.614,1.212,0.860,0.384,0.676,0.636,���k��,1.2,��
2020/11/30,02:00,0.673,0.972,0.614,1.211,0.863,0.383,0.678,0.636,�k�k��,1.4,��
2020/11/30,02:10,0.675,0.973,0.615,1.213,0.861,0.383,0.678,0.637,�k��,2.3,��
2020/11/30,02:20,0.675,0.973,0.613,1.211,0.863,0.382,0.676,0.637,�k��,3.2,��
2020/11/30,02:30,0.672,0.973,0.613,1.210,0.863,0.383,0.676,0.637,�k��,3.0,��
2020/11/30,02:40,0.674,0.974,0.615,1.212,0.863,0.384,0.676,0.636,�k��,2.9,��
2020/11/30,02:50,0.673,0.974,0.614,1.212,0.862,0.383,0.675,0.636,�k��,3.2,��
2020/11/30,03:00,0.672,0.973,0.613,1.211,0.860,0.383,0.678,0.636,�k��,2.6,��
2020/11/30,03:10,0.673,0.972,0.614,1.213,0.861,0.382,0.676,0.636,�k��,2.6,��
2020/11/30,03:20,0.674,0.973,0.613,1.213,0.860,0.383,0.677,0.638,�k��,2.3,��
2020/11/30,03:30,0.677,0.971,0.612,1.212,0.862,0.382,0.676,0.636,�k��,2.2,��
2020/11/30,03:40,0.673,0.972,0.613,1.211,0.862,0.384,0.675,0.638,�k��,2.2,��
2020/11/30,03:50,0.672,0.971,0.613,1.212,0.861,0.383,0.676,0.638,�k��,2.6,��
2020/11/30,04:00,0.674,0.972,0.614,1.214,0.862,0.383,0.676,0.638,�k��,3.2,��
2020/11/30,04:10,0.673,0.973,0.613,1.211,0.859,0.382,0.676,0.638,�k��,3.2,��
2020/11/30,04:20,0.674,0.973,0.611,1.213,0.861,0.384,0.677,0.638,�k��,2.8,��
2020/11/30,04:30,0.673,0.971,0.613,1.211,0.858,0.384,0.676,0.637,�k��,3.4,��
2020/11/30,04:40,0.674,0.970,0.612,1.215,0.861,0.382,0.677,0.636,�k��,3.9,��
2020/11/30,04:50,0.672,0.974,0.614,1.212,0.861,0.382,0.676,0.637,�k��,4.2,��
2020/11/30,05:00,0.672,0.970,0.612,1.210,0.862,0.382,0.676,0.637,�k��,4.1,��
2020/11/30,05:10,0.674,0.973,0.613,1.210,0.861,0.382,0.676,0.637,�k��,3.7,��
2020/11/30,05:20,0.674,0.970,0.613,1.211,0.860,0.384,0.675,0.637,�k��,4.2,��
2020/11/30,05:30,0.673,0.971,0.614,1.212,0.860,0.383,0.677,0.635,�k�k��,4.3,��
2020/11/30,05:40,0.672,0.973,0.614,1.213,0.860,0.383,0.677,0.635,�k��,5.0,��
2020/11/30,05:50,0.673,0.971,0.613,1.212,0.860,0.383,0.677,0.636,�k�k��,3.9,��
2020/11/30,06:00,0.672,0.971,0.612,1.211,0.861,0.381,0.676,0.637,�k�k��,4.9,��
2020/11/30,06:10,0.673,0.971,0.612,1.213,0.861,0.383,0.677,0.637,�k�k��,4.8,��
2020/11/30,06:20,0.672,0.972,0.615,1.213,0.860,0.383,0.677,0.638,�k�k��,5.1,��
2020/11/30,06:30,0.673,0.974,0.613,1.210,0.860,0.380,0.678,0.637,�k�k��,5.8,��
2020/11/30,06:40,0.675,0.971,0.613,1.212,0.860,0.383,0.677,0.637,�k�k��,6.0,��
2020/11/30,06:50,0.674,0.972,0.613,1.213,0.861,0.382,0.676,0.638,�k�k��,7.0,��
2020/11/30,07:00,0.672,0.974,0.615,1.211,0.860,0.382,0.678,0.636,�k�k��,8.7,��
2020/11/30,07:10,0.674,0.977,0.615,1.213,0.861,0.383,0.676,0.637,�k�k��,8.9,��
2020/11/30,07:20,0.674,0.974,0.614,1.213,0.860,0.381,0.678,0.638,�k�k��,9.9,��
2020/11/30,07:30,0.673,0.971,0.615,1.211,0.863,0.383,0.677,0.636,�k�k��,8.4,��
2020/11/30,07:40,0.674,0.973,0.614,1.214,0.860,0.384,0.679,0.636,�k�k��,7.4,�L
2020/11/30,07:50,0.674,0.971,0.613,1.213,0.861,0.382,0.678,0.638,�k��,6.4,��
2020/11/30,08:00,0.673,0.973,0.613,1.213,0.860,0.383,0.676,0.637,�k��,6.2,�L
2020/11/30,08:10,0.674,0.973,0.615,1.214,0.862,0.384,0.678,0.637,�k�k��,5.5,��
2020/11/30,08:20,0.673,0.972,0.614,1.213,0.860,0.384,0.677,0.637,�k�k��,5.9,��
2020/11/30,08:30,0.676,0.973,0.613,1.215,0.863,0.382,0.678,0.638,�k�k��,6.8,��
2020/11/30,08:40,0.674,0.971,0.613,1.212,0.861,0.383,0.675,0.638,�k�k��,6.8,��
2020/11/30,08:50,0.673,0.969,0.614,1.211,0.863,0.383,0.673,0.638,�k�k��,5.6,�L
2020/11/30,09:00,0.675,0.972,0.614,1.217,0.863,0.384,0.675,0.638,�k�k��,7.1,��
2020/11/30,09:10,0.674,0.972,0.613,1.213,0.863,0.383,0.674,0.636,�k��,6.6,��
2020/11/30,09:20,0.675,0.970,0.614,1.213,0.864,0.383,0.674,0.638,�k�k��,6.1,��
2020/11/30,09:30,0.675,0.970,0.614,1.212,0.864,0.382,0.674,0.638,�k�k��,5.8,��
2020/11/30,09:40,0.675,0.972,0.613,1.212,0.860,0.382,0.673,0.637,�k�k��,6.1,��
2020/11/30,09:50,0.677,0.970,0.614,1.213,0.863,0.382,0.675,0.637,�k�k��,5.1,��
2020/11/30,10:00,0.676,0.969,0.613,1.213,0.863,0.382,0.675,0.638,�k�k��,6.3,��
2020/11/30,10:10,0.675,0.970,0.613,1.212,0.860,0.383,0.674,0.639,�k,6.1,��
2020/11/30,10:20,0.675,0.968,0.613,1.213,0.861,0.384,0.676,0.638,�k�k��,5.2,��
2020/11/30,10:30,0.675,0.970,0.613,1.213,0.861,0.384,0.675,0.638,�k,5.8,��
2020/11/30,10:40,0.676,0.973,0.615,1.212,0.862,0.383,0.674,0.637,�k,6.6,��
2020/11/30,10:50,0.674,0.970,0.614,1.211,0.861,0.381,0.673,0.637,�k,5.4,��
2020/11/30,11:00,0.676,0.970,0.615,1.211,0.864,0.382,0.673,0.637,�k�k��,5.7,��
2020/11/30,11:10,0.673,0.968,0.613,1.213,0.863,0.383,0.673,0.639,�k�k��,6.8,��
2020/11/30,11:20,0.675,0.969,0.615,1.216,0.862,0.382,0.675,0.638,�k�k��,6.2,��
2020/11/30,11:30,0.674,0.972,0.612,1.212,0.864,0.384,0.676,0.637,�k�k��,5.8,��
2020/11/30,11:40,0.674,0.972,0.613,1.212,0.863,0.383,0.676,0.638,�k�k��,6.4,��
2020/11/30,11:50,0.676,0.972,0.615,1.213,0.862,0.383,0.676,0.638,�k�k��,6.0,��
2020/11/30,12:00,0.674,0.975,0.613,1.214,0.865,0.383,0.676,0.638,�k�k��,7.0,��
2020/11/30,12:10,0.673,0.974,0.614,1.211,0.864,0.382,0.676,0.639,�k,7.4,��
2020/11/30,12:20,0.674,0.974,0.615,1.206,0.866,0.383,0.677,0.638,�k�k��,7.8,��
2020/11/30,12:30,0.674,0.972,0.615,1.209,0.864,0.384,0.676,0.638,�k�k��,7.0,��
2020/11/30,12:40,0.676,0.974,0.615,1.210,0.861,0.383,0.677,0.637,�k�k��,6.7,��
2020/11/30,12:50,0.674,0.974,0.614,1.210,0.862,0.384,0.677,0.638,�k�k��,6.6,��
2020/11/30,13:00,0.674,0.971,0.616,1.209,0.861,0.384,0.678,0.637,�k�k��,6.4,��
2020/11/30,13:10,0.676,0.970,0.614,1.210,0.866,0.383,0.678,0.635,�k�k��,6.2,��
2020/11/30,13:20,0.677,0.971,0.614,1.210,0.866,0.383,0.677,0.636,�k�k��,6.7,��
2020/11/30,13:30,0.675,0.968,0.613,1.210,0.866,0.383,0.678,0.635,�k�k��,6.2,��
2020/11/30,13:40,0.676,0.968,0.616,1.209,0.865,0.382,0.677,0.636,�k�k��,6.4,��
2020/11/30,13:50,0.675,0.969,0.614,1.209,0.864,0.385,0.678,0.637,�k�k��,6.1,��
2020/11/30,14:00,0.676,0.969,0.614,1.213,0.864,0.383,0.678,0.636,�k�k��,6.2,��
2020/11/30,14:10,0.675,0.971,0.615,1.213,0.864,0.382,0.679,0.635,�k�k��,4.9,��
2020/11/30,14:20,0.676,0.970,0.616,1.213,0.864,0.383,0.677,0.637,�k�k��,4.6,��
2020/11/30,14:30,0.676,0.970,0.613,1.214,0.864,0.382,0.677,0.638,�k,4.7,��
2020/11/30,14:40,0.675,0.973,0.615,1.214,0.865,0.383,0.678,0.637,�k,4.7,��
2020/11/30,14:50,0.677,0.976,0.614,1.213,0.864,0.383,0.677,0.637,�k,5.5,��
2020/11/30,15:00,0.676,0.975,0.614,1.215,0.864,0.383,0.679,0.639,�k,5.5,��
2020/11/30,15:10,0.678,0.974,0.614,1.215,0.865,0.383,0.677,0.637,�k,4.2,��
2020/11/30,15:20,0.677,0.976,0.613,1.213,0.865,0.383,0.677,0.639,�k,4.2,��
2020/11/30,15:30,0.675,0.976,0.615,1.215,0.866,0.383,0.677,0.638,�k�k��,3.6,��
2020/11/30,15:40,0.677,0.974,0.615,1.214,0.864,0.385,0.677,0.638,�k,4.5,��
2020/11/30,15:50,0.676,0.975,0.616,1.214,0.864,0.383,0.678,0.638,�k,4.6,��
2020/11/30,16:00,0.676,0.977,0.616,1.215,0.864,0.383,0.680,0.637,�k,4.6,��
2020/11/30,16:10,0.676,0.975,0.614,1.213,0.863,0.384,0.679,0.638,�k,3.1,��
2020/11/30,16:20,0.677,0.975,0.614,1.214,0.866,0.383,0.678,0.638,�k,3.9,��
2020/11/30,16:30,0.675,0.977,0.615,1.215,0.864,0.384,0.677,0.637,�k,3.8,��
2020/11/30,16:40,0.675,0.976,0.614,1.212,0.863,0.383,0.679,0.637,�k,3.5,��
2020/11/30,16:50,0.675,0.976,0.614,1.213,0.865,0.383,0.678,0.638,�k�k��,3.0,��
2020/11/30,17:00,0.675,0.977,0.615,1.214,0.862,0.383,0.678,0.638,�k�k��,2.9,��
2020/11/30,17:10,0.674,0.974,0.615,1.213,0.864,0.383,0.677,0.637,�k��,1.7,��
2020/11/30,17:20,0.675,0.978,0.614,1.213,0.864,0.384,0.677,0.638,�k�k��,2.0,��
2020/11/30,17:30,0.675,0.976,0.614,1.214,0.862,0.382,0.676,0.638,�k�k��,2.5,��
2020/11/30,17:40,0.674,0.975,0.614,1.212,0.864,0.383,0.678,0.637,�k�k��,2.9,��
2020/11/30,17:50,0.675,0.974,0.613,1.215,0.863,0.382,0.677,0.636,�k�k��,2.8,��
2020/11/30,18:00,0.674,0.975,0.615,1.212,0.864,0.384,0.678,0.638,�k��,3.1,��
2020/11/30,18:10,0.672,0.975,0.616,1.215,0.861,0.384,0.677,0.640,�k��,3.5,��
2020/11/30,18:20,0.674,0.977,0.615,1.215,0.864,0.383,0.678,0.637,�k��,3.1,��
2020/11/30,18:30,0.676,0.976,0.614,1.212,0.864,0.382,0.678,0.637,�k��,3.1,��
2020/11/30,18:40,0.673,0.975,0.615,1.212,0.862,0.382,0.678,0.637,�k��,2.6,��
2020/11/30,18:50,0.674,0.973,0.615,1.213,0.864,0.382,0.679,0.636,�k��,3.2,��
2020/11/30,19:00,0.675,0.977,0.616,1.215,0.863,0.384,0.679,0.638,�k��,3.0,��
2020/11/30,19:10,0.676,0.975,0.616,1.214,0.864,0.382,0.678,0.638,�k��,3.3,��
2020/11/30,19:20,0.676,0.975,0.615,1.213,0.864,0.383,0.679,0.638,�k��,2.8,��
2020/11/30,19:30,0.675,0.976,0.617,1.213,0.863,0.385,0.678,0.638,�k�k��,2.6,��
2020/11/30,19:40,0.675,0.976,0.615,1.215,0.864,0.382,0.676,0.638,�k��,2.3,��
2020/11/30,19:50,0.676,0.975,0.613,1.213,0.864,0.383,0.677,0.635,���k��,2.8,��
2020/11/30,20:00,0.674,0.974,0.615,1.212,0.863,0.381,0.680,0.636,���k��,4.2,��
2020/11/30,20:10,0.676,0.974,0.615,1.215,0.861,0.384,0.679,0.637,���k��,3.8,��
2020/11/30,20:20,0.673,0.975,0.614,1.214,0.862,0.384,0.678,0.636,�k��,3.4,��
2020/11/30,20:30,0.674,0.976,0.614,1.213,0.861,0.383,0.678,0.636,���k��,3.5,��
2020/11/30,20:40,0.675,0.976,0.615,1.213,0.863,0.384,0.678,0.636,���k��,3.8,��
2020/11/30,20:50,0.675,0.976,0.616,1.213,0.864,0.383,0.678,0.638,�k��,3.5,��
2020/11/30,21:00,0.673,0.977,0.615,1.213,0.863,0.384,0.677,0.639,���k��,3.8,��
2020/11/30,21:10,0.676,0.974,0.615,1.215,0.864,0.382,0.676,0.638,���k��,4.3,��
2020/11/30,21:20,0.674,0.976,0.615,1.214,0.864,0.384,0.678,0.637,���k��,3.5,��
2020/11/30,21:30,0.675,0.975,0.614,1.217,0.864,0.383,0.677,0.638,�k��,4.2,��
2020/11/30,21:40,0.675,0.977,0.617,1.216,0.865,0.384,0.677,0.637,�k��,6.2,��
2020/11/30,21:50,0.675,0.976,0.616,1.216,0.865,0.382,0.678,0.639,�k��,6.7,��
2020/11/30,22:00,0.674,0.975,0.614,1.214,0.864,0.383,0.678,0.638,�k��,6.5,��
2020/11/30,22:10,0.676,0.974,0.612,1.216,0.863,0.382,0.678,0.637,�k��,5.9,��
2020/11/30,22:20,0.674,0.975,0.613,1.214,0.865,0.383,0.677,0.636,�k��,5.6,��
2020/11/30,22:30,0.673,0.977,0.615,1.215,0.862,0.383,0.675,0.637,���k��,6.1,��
2020/11/30,22:40,0.675,0.975,0.615,1.213,0.864,0.383,0.677,0.636,���k��,5.8,��
2020/11/30,22:50,0.674,0.974,0.614,1.213,0.863,0.383,0.676,0.636,�k��,5.3,��
2020/11/30,23:00,0.673,0.975,0.613,1.214,0.864,0.383,0.677,0.637,���k��,6.4,��
2020/11/30,23:10,0.673,0.977,0.616,1.214,0.864,0.382,0.678,0.636,���k��,6.5,��
2020/11/30,23:20,0.676,0.975,0.615,1.212,0.862,0.384,0.676,0.636,���k��,5.3,��
2020/11/30,23:30,0.675,0.976,0.615,1.213,0.862,0.383,0.677,0.636,�k�k��,4.1,��
2020/11/30,23:40,0.673,0.975,0.615,1.214,0.861,0.384,0.677,0.637,�k�k��,5.0,��
2020/11/30,23:50,0.674,0.975,0.614,1.214,0.864,0.383,0.678,0.638,�k��,5.2,��
